Location: Casilda
(33.0440°S, 61.1680°W)
Time: 06:42:47
(UTC-03:00)

Tiangong 2 - Visible Passes

Search period start: 19 July 2018 00:00
Search period end: 29 July 2018 00:00
Orbit: 386 x 394 km, 42.8° (Epoch: 18 July)

Date Brightness Start Highest point End Pass type
(mag) Time Alt. Az. Time Alt. Az. Time Alt. Az.
19 Jul 4.3 05:44:57 14° ESE 05:44:57 14° ESE 05:45:35 10° ESE visible
19 Jul 2.3 07:17:19 15° WSW 07:19:24 27° SSW 07:22:16 10° SE visible
20 Jul 2.6 06:22:41 30° SSE 06:22:41 30° SSE 06:24:42 10° SE visible
21 Jul 2.9 07:00:16 18° SSW 07:01:05 19° SSW 07:03:32 10° SE visible
22 Jul 3.9 06:05:23 13° SSE 06:05:23 13° SSE 06:05:59 10° SE visible
23 Jul 3.3 06:42:45 16° S 06:42:48 16° S 06:44:53 10° SSE visible
24 Jul 3.4 07:20:29 10° SSW 07:22:31 15° S 07:24:35 10° SE visible
25 Jul 3.6 06:25:02 14° S 06:25:02 14° S 06:26:27 10° SE visible
26 Jul 3.2 07:02:17 12° SSW 07:04:13 18° SSE 07:06:35 10° ESE visible
27 Jul 3.8 06:07:13 14° SSE 06:07:13 14° SSE 06:08:18 10° SE visible
28 Jul 2.8 06:44:30 19° SSW 06:45:48 25° SSE 06:48:34 10° ESE visible
